H1 CPF 2 NER 2024 2 22 9 053 01 glonass139 H2 1808601 9139 43687 2024 2 22 0 0 0 2024 2 25 23 45 0 900 1 1 0 0 0 1 H9 10 0 60362 0.00000 0 11484239.256 -530169.985 -22758603.700 10 0 60362 900.00000 0 12549042.492 2027307.603 -22103529.447 10 0 60362 1800.00000 0 13747901.921 4405263.839 -21018697.894 10 0 60362 2700.00000 0 15035721.394 6552982.492 -19525226.176 10 0 60362 3600.00000 0 16360046.901 8429657.045 -17652177.501 10 0 60362 4500.00000 0 17663260.769 10005832.983 -15435993.697 10 0 60362 5400.00000 0 18885012.221 11264373.514 -12919783.892 10 0 60362 6300.00000 0 19964782.029 12200909.684 -10152483.162 10 0 60362 7200.00000 0 20844473.122 12823757.490 -7187897.639 10 0 60362 8100.00000 0 21470917.913 13153307.044 -4083654.884 10 0 60362 9000.00000 0 21798196.478 13220911.029 -900080.222 10 0 60362 9900.00000 0 21789667.706 13067320.796 2300978.631 10 0 60362 10800.00000 0 21419627.645 12740737.432 5457355.393 10 0 60362 11700.00000 0 20674525.046 12294561.264 8507773.678 10 0 60362 12600.00000 0 19553682.785 11784935.792 11393036.273 10 0 60362 13500.00000 0 18069494.717 11268190.476 14057171.993 10 0 60362 14400.00000 0 16247089.491 10798290.762 16448517.947 10 0 60362 15300.00000 0 14123475.195 10424403.099 18520716.470 10 0 60362 16200.00000 0 11746200.249 10188677.592 20233607.924 10 0 60362 17100.00000 0 9171585.951 10124341.479 21554002.776 10 0 60362 18000.00000 0 6462603.674 10254183.415 22456318.732 10 0 60362 18900.00000 0 3686484.216 10589492.103 22923071.409 10 0 60362 19800.00000 0 912157.576 11129493.743 22945209.715 10 0 60362 20700.00000 0 -1792371.645 11861312.035 22522289.926 10 0 60362 21600.00000 0 -4362605.579 12760452.764 21662485.340 10 0 60362 22500.00000 0 -6739985.353 13791793.207 20382431.207 10 0 60362 23400.00000 0 -8874074.464 14911035.644 18706907.622 10 0 60362 24300.00000 0 -10724403.768 16066564.854 16668365.855 10 0 60362 25200.00000 0 -12261902.274 17201632.534 14306306.521 10 0 60362 26100.00000 0 -13469855.007 18256777.701 11666520.769 10 0 60362 27000.00000 0 -14344348.621 19172381.897 8800208.362 10 0 60362 27900.00000 0 -14894186.742 19891252.077 5762989.033 10 0 60362 28800.00000 0 -15140279.064 20361122.364 2613825.837 10 0 60362 29700.00000 0 -15114530.318 20536968.959 -586118.834 10 0 60362 30600.00000 0 -14858276.340 20383039.909 -3774672.333 10 0 60362 31500.00000 0 -14420333.634 19874513.255 -6889862.500 10 0 60362 32400.00000 0 -13854745.300 18998712.471 -9871126.069 10 0 60362 33300.00000 0 -13218319.107 17755826.767 -12660490.676 10 0 60362 34200.00000 0 -12568062.384 16159104.611 -15203706.845 10 0 60362 35100.00000 0 -11958622.791 14234511.116 -17451307.413 10 0 60362 36000.00000 0 -11439843.724 12019862.503 -19359573.372 10 0 60362 36900.00000 0 -11054538.176 9563472.931 -20891387.040 10 0 60362 37800.00000 0 -10836575.566 6922369.471 -22016955.885 10 0 60362 38700.00000 0 -10809362.626 4160149.057 -22714392.954 10 0 60362 39600.00000 0 -10984782.757 1344566.268 -22970142.706 10 0 60362 40500.00000 0 -11362638.770 -1455048.079 -22779244.185 10 0 60362 41400.00000 0 -11930622.674 -4170430.554 -22145426.552 10 0 60362 42300.00000 0 -12664813.895 -6736981.409 -21081035.249 10 0 60362 43200.00000 0 -13530685.011 -9096206.101 -19606790.300 10 0 60362 44100.00000 0 -14484572.675 -11197901.086 -17751381.444 10 0 60362 45000.00000 0 -15475551.736 -13001993.603 -15550907.939 10 0 60362 45900.00000 0 -16447633.491 -14479959.691 -13048173.909 10 0 60362 46800.00000 0 -17342195.267 -15615762.345 -10291852.937 10 0 60362 47700.00000 0 -18100538.643 -16406271.813 -7335538.270 10 0 60362 48600.00000 0 -18666468.118 -16861151.860 -4236697.327 10 0 60362 49500.00000 0 -18988781.116 -17002218.214 -1055551.137 10 0 60362 50400.00000 0 -19023563.910 -16862297.684 2146099.055 10 0 60362 51300.00000 0 -18736196.273 -16483637.395 5306074.758 10 0 60362 52200.00000 0 -18102980.027 -15915932.483 8363029.002 10 0 60362 53100.00000 0 -17112322.553 -15214056.483 11257637.063 10 0 60362 54000.00000 0 -15765425.163 -14435590.968 13933745.848 10 0 60362 54900.00000 0 -14076447.070 -13638259.152 16339459.756 10 0 60362 55800.00000 0 -12072137.703 -12877371.838 18428142.143 10 0 60362 56700.00000 0 -9790952.245 -12203393.279 20159313.561 10 0 60362 57600.00000 0 -7281686.734 -11659729.098 21499430.011 10 0 60362 58500.00000 0 -4601688.860 -11280828.866 22422526.930 10 0 60362 59400.00000 0 -1814718.018 -11090682.604 22910717.209 10 0 60362 60300.00000 0 1011457.568 -11101773.858 22954534.319 10 0 60362 61200.00000 0 3807628.036 -11314532.993 22553114.374 10 0 60362 62100.00000 0 6505768.195 -11717313.523 21714213.845 10 0 60362 63000.00000 0 9041615.281 -12286892.572 20454062.529 10 0 60362 63900.00000 0 11357092.417 -12989474.817 18797054.244 10 0 60362 64800.00000 0 13402478.273 -13782158.273 16775280.634 10 0 60362 65700.00000 0 15138233.697 -14614800.976 14427916.319 10 0 60362 66600.00000 0 16536410.057 -15432210.703 11800466.435 10 0 60362 67500.00000 0 17581581.168 -16176566.092 8943890.322 10 0 60362 68400.00000 0 18271260.385 -16789967.533 5913617.631 10 0 60362 69300.00000 0 18615785.738 -17217010.326 2768475.460 10 0 60362 70200.00000 0 18637678.310 -17407271.302 -430452.883 10 0 60362 71100.00000 0 18370501.130 -17317603.384 -3621015.329 10 0 60362 72000.00000 0 17857266.988 -16914140.321 -6741201.309 10 0 60362 72900.00000 0 17148462.701 -16173925.880 -9730350.860 10 0 60362 73800.00000 0 16299773.634 -15086097.438 -12530338.505 10 0 60362 74700.00000 0 15369605.031 -13652572.706 -15086708.236 10 0 60362 75600.00000 0 14416505.352 -11888209.249 -17349736.995 10 0 60362 76500.00000 0 13496600.836 -9820428.724 -19275405.558 10 0 60362 77400.00000 0 12661150.036 -7488320.355 -20826257.590 10 0 60362 78300.00000 0 11954321.798 -4941260.073 -21972130.114 10 0 60362 79200.00000 0 11411290.572 -2237102.073 -22690741.171 10 0 60362 80100.00000 0 11056729.440 559982.500 -22968123.367 10 0 60362 81000.00000 0 10903764.268 3381930.333 -22798895.066 10 0 60362 81900.00000 0 10953432.926 6159373.821 -22186364.106 10 0 60362 82800.00000 0 11194672.106 8824284.831 -21142462.160 10 0 60362 83700.00000 0 11604832.031 11312564.880 -19687511.081 10 0 60362 84600.00000 0 12150697.048 13566474.496 -17849825.768 10 0 60362 85500.00000 0 12789968.778 15536801.170 -15665161.247 10 0 60363 0.00000 0 13473148.817 17184676.160 -13176014.945 10 0 60363 900.00000 0 14145741.580 18482965.993 -10430796.315 10 0 60363 1800.00000 0 14750682.929 19417179.385 -7482883.498 10 0 60363 2700.00000 0 15230892.837 19985855.707 -4389581.144 10 0 60363 3600.00000 0 15531842.874 20200417.712 -1211003.204 10 0 60363 4500.00000 0 15604029.970 20084496.991 1991098.399 10 0 60363 5400.00000 0 15405251.453 19672761.712 5154535.808 10 0 60363 6300.00000 0 14902584.898 19009297.246 8217894.231 10 0 60363 7200.00000 0 14073988.865 18145608.995 11121724.028 10 0 60363 8100.00000 0 12909456.649 17138332.429 13809692.603 10 0 60363 9000.00000 0 11411674.101 16046747.407 16229673.800 10 0 60363 9900.00000 0 9596153.348 14930201.706 18334753.925 10 0 60363 10800.00000 0 7490836.282 13845552.176 20084135.377 10 0 60363 11700.00000 0 5135183.624 12844730.760 21443921.100 10 0 60363 12600.00000 0 2578786.779 11972537.130 22387765.374 10 0 60363 13500.00000 0 -120440.714 11264749.904 22897379.175 10 0 60363 14400.00000 0 -2898418.068 10746634.940 22962880.999 10 0 60363 15300.00000 0 -5687310.182 10431912.601 22582986.864 10 0 60363 16200.00000 0 -8418099.804 10322226.714 21765036.063 10 0 60363 17100.00000 0 -11023213.506 10407137.168 20524852.127 10 0 60363 18000.00000 0 -13439093.748 10664636.303 18886441.335 10 0 60363 18900.00000 0 -15608611.336 11062167.549 16881534.014 10 0 60363 19800.00000 0 -17483218.986 11558103.730 14548976.717 10 0 60363 20700.00000 0 -19024757.059 12103623.258 11933986.197 10 0 60363 21600.00000 0 -20206836.764 12644905.557 9087278.785 10 0 60363 22500.00000 0 -21015743.416 13125553.430 6064091.336 10 0 60363 23400.00000 0 -21450822.194 13489140.241 2923112.219 10 0 60363 24300.00000 0 -21524330.366 13681774.138 -274657.122 10 0 60363 25200.00000 0 -21260762.369 13654570.516 -3467087.945 10 0 60363 26100.00000 0 -20695676.234 13365927.412 -6592133.983 10 0 60363 27000.00000 0 -19874071.052 12783506.663 -9589041.213 10 0 60363 27900.00000 0 -18848384.096 11885835.865 -12399533.570 10 0 60363 28800.00000 0 -17676192.450 10663462.119 -14968950.881 10 0 60363 29700.00000 0 -16417716.423 9119607.467 -17247316.340 10 0 60363 30600.00000 0 -15133230.401 7270296.924 -19190312.359 10 0 60363 31500.00000 0 -13880490.588 5143952.310 -20760145.471 10 0 60363 32400.00000 0 -12712288.234 2780467.601 -21926283.388 10 0 60363 33300.00000 0 -11674231.435 229803.297 -22666049.882 10 0 60363 34200.00000 0 -10802848.828 -2449842.435 -22965066.020 10 0 60363 35100.00000 0 -10124094.707 -5194210.415 -22817529.385 10 0 60363 36000.00000 0 -9652318.084 -7935414.907 -22226325.983 10 0 60363 36900.00000 0 -9389738.560 -10604535.061 -21202972.805 10 0 60363 37800.00000 0 -9326450.472 -13134255.996 -19767392.246 10 0 60363 38700.00000 0 -9440954.495 -15461450.041 -17947522.738 10 0 60363 39600.00000 0 -9701193.615 -17529591.090 -15778773.175 10 0 60363 40500.00000 0 -10066049.120 -19290901.942 -13303331.692 10 0 60363 41400.00000 0 -10487232.795 -20708145.659 -10569342.239 10 0 60363 42300.00000 0 -10911494.754 -21755986.776 -7629965.092 10 0 60363 43200.00000 0 -11283052.963 -22421866.290 -4542339.755 10 0 60363 44100.00000 0 -11546141.136 -22706354.769 -1366470.728 10 0 60363 45000.00000 0 -11647566.666 -22622969.847 1835941.742 10 0 60363 45900.00000 0 -11539169.879 -22197466.943 5002702.778 10 0 60363 46800.00000 0 -11180080.170 -21466634.181 8072332.093 10 0 60363 47700.00000 0 -10538673.250 -20476643.253 10985257.449 10 0 60363 48600.00000 0 -9594146.469 -19281026.519 13684969.001 10 0 60363 49500.00000 0 -8337645.387 -17938366.076 16119112.214 10 0 60363 50400.00000 0 -6772893.678 -16509792.337 18240498.346 10 0 60363 51300.00000 0 -4916299.348 -15056397.257 20008013.434 10 0 60363 52200.00000 0 -2796532.041 -13636670.533 21387408.868 10 0 60363 53100.00000 0 -453588.263 -12304065.770 22351958.952 10 0 60363 54000.00000 0 2062617.546 -11104797.846 22882973.572 10 0 60363 54900.00000 0 4694078.604 -10075962.832 22970156.715 10 0 60363 55800.00000 0 7376863.395 -9244058.255 22611804.413 10 0 60363 56700.00000 0 10043536.605 -8623964.768 21814838.562 10 0 60363 57600.00000 0 12625734.233 -8218431.118 20594675.888 10 0 60363 58500.00000 0 15056787.174 -8018083.450 18974934.295 10 0 60363 59400.00000 0 17274285.470 -8001958.210 16986981.663 10 0 60363 60300.00000 0 19222477.536 -8138536.143 14669335.045 10 0 60363 61200.00000 0 20854405.185 -8387233.932 12066921.064 10 0 60363 62100.00000 0 22133685.919 -8700290.787 9230210.970 10 0 60363 63000.00000 0 23035868.332 -9024970.561 6214246.420 10 0 60363 63900.00000 0 23549303.983 -9305986.439 3077574.355 10 0 60363 64800.00000 0 23675499.199 -9488045.592 -118888.584 10 0 60363 65700.00000 0 23428931.951 -9518405.804 -3313040.083 10 0 60363 66600.00000 0 22836341.438 -9349335.256 -6442801.311 10 0 60363 67500.00000 0 21935520.263 -8940370.501 -9447327.262 10 0 60363 68400.00000 0 20773660.091 -8260276.003 -12268194.191 10 0 60363 69300.00000 0 19405320.634 -7288621.102 -14850540.423 10 0 60363 70200.00000 0 17890107.719 -6016906.412 -17144137.769 10 0 60363 71100.00000 0 16290158.428 -4449190.637 -19104372.320 10 0 60363 72000.00000 0 14667539.375 -2602189.983 -20693115.169 10 0 60363 72900.00000 0 13081667.734 -504844.517 -21879466.050 10 0 60363 73800.00000 0 11586863.386 1802631.646 -22640355.415 10 0 60363 74700.00000 0 10230134.947 4270177.753 -22960993.361 10 0 60363 75600.00000 0 9049292.308 6839732.786 -22835156.850 10 0 60363 76500.00000 0 8071464.443 9447424.607 -22265309.814 10 0 60363 77400.00000 0 7312084.047 12026011.269 -21262553.939 10 0 60363 78300.00000 0 6774380.858 14507473.298 -19846411.158 10 0 60363 79200.00000 0 6449404.026 16825649.420 -18044442.085 10 0 60363 80100.00000 0 6316571.622 18918806.193 -15891707.791 10 0 60363 81000.00000 0 6344723.117 20732034.758 -13430085.353 10 0 60363 81900.00000 0 6493629.479 22219375.038 -10707450.482 10 0 60363 82800.00000 0 6715896.157 23345579.056 -7776743.236 10 0 60363 83700.00000 0 6959177.665 24087440.144 -4694935.201 10 0 60363 84600.00000 0 7168609.276 24434633.053 -1521918.496 10 0 60363 85500.00000 0 7289352.193 24390030.543 1680661.328 10 0 60364 0.00000 0 7269143.856 23969484.101 4850605.114 10 0 60364 900.00000 0 7060744.848 23201078.669 7926370.587 10 0 60364 1800.00000 0 6624178.481 22123894.279 10848265.388 10 0 60364 2700.00000 0 5928667.995 20786326.679 13559604.982 10 0 60364 3600.00000 0 4954189.137 19244038.641 16007808.748 10 0 60364 4500.00000 0 3692572.297 17557628.205 18145414.913 10 0 60364 5400.00000 0 2148107.288 15790111.793 19930994.888 10 0 60364 6300.00000 0 337624.739 14004327.488 21329949.929 10 0 60364 7200.00000 0 -1709950.157 12260366.697 22315175.484 10 0 60364 8100.00000 0 -3954553.833 10613140.867 22867581.115 10 0 60364 9000.00000 0 -6346411.817 9110184.042 22976456.691 10 0 60364 9900.00000 0 -8827879.228 7789781.990 22639678.244 10 0 60364 10800.00000 0 -11335619.130 6679504.996 21863749.800 10 0 60364 11700.00000 0 -13803029.553 5795204.597 20663680.342 10 0 60364 12600.00000 0 -16162819.566 5140515.355 19062697.980 10 0 60364 13500.00000 0 -18349628.477 4706881.794 17091806.268 10 0 60364 14400.00000 0 -20302580.144 4474108.855 14789190.467 10 0 60364 15300.00000 0 -21967666.687 4411412.469 12199484.436 10 0 60364 16200.00000 0 -23299862.634 4478925.829 9372911.468 10 0 60364 17100.00000 0 -24264881.375 4629597.813 6364314.989 10 0 60364 18000.00000 0 -24840500.360 4811403.349 3232097.426 10 0 60364 18900.00000 0 -25017399.343 4969772.093 37087.547 10 0 60364 19800.00000 0 -24799476.166 5050132.371 -3158641.763 10 0 60364 20700.00000 0 -24203626.492 5000462.149 -6292982.009 10 0 60364 21600.00000 0 -23258996.475 4773738.256 -9304999.962 10 0 60364 22500.00000 0 -22005739.584 4330179.189 -12136126.805 10 0 60364 23400.00000 0 -20493329.798 3639185.463 -14731301.755 10 0 60364 24300.00000 0 -18778502.159 2680894.154 -17040047.374 10 0 60364 25200.00000 0 -16922907.308 1447280.620 -19017455.221 10 0 60364 26100.00000 0 -14990578.720 -57240.478 -20625062.336 10 0 60364 27000.00000 0 -13045319.043 -1815741.551 -21831601.395 10 0 60364 27900.00000 0 -11148115.155 -3799240.319 -22613609.952 10 0 60364 28800.00000 0 -9354690.214 -5967671.928 -22955887.050 10 0 60364 29700.00000 0 -7713294.933 -8271335.362 -22851788.463 10 0 60364 30600.00000 0 -6262830.078 -10652754.619 -22303355.035 10 0 60364 31500.00000 0 -5031378.146 -13048877.707 -21321271.724 10 0 60364 32400.00000 0 -4035204.869 -15393522.265 -19924658.237 10 0 60364 33300.00000 0 -3278271.323 -17619966.241 -18140695.325 10 0 60364 34200.00000 0 -2752275.990 -19663575.800 -16004093.981 10 0 60364 35100.00000 0 -2437223.732 -21464361.025 -13556417.831 10 0 60364 36000.00000 0 -2302496.453 -22969352.830 -10845271.878 10 0 60364 36900.00000 0 -2308379.078 -24134701.890 -7923373.497 10 0 60364 37800.00000 0 -2407975.229 -24927411.995 -4847523.925 10 0 60364 38700.00000 0 -2549430.574 -25326635.602 -1677500.545 10 0 60364 39600.00000 0 -2678368.807 -25324477.695 1525108.062 10 0 60364 40500.00000 0 -2740436.362 -24926274.824 4698101.201 10 0 60364 41400.00000 0 -2683847.427 -24150338.290 7779875.575 10 0 60364 42300.00000 0 -2461821.019 -23027172.948 10710621.318 10 0 60364 43200.00000 0 -2034806.590 -21598205.124 13433481.149 10 0 60364 44100.00000 0 -1372403.767 -19914073.562 15895650.191 10 0 60364 45000.00000 0 -454894.852 -18032555.464 18049395.319 10 0 60364 45900.00000 0 725674.838 -16016214.618 19852974.771 10 0 60364 46800.00000 0 2164914.754 -13929869.878 21271440.882 10 0 60364 47700.00000 0 3846030.093 -11837989.377 22277311.137 10 0 60364 48600.00000 0 5740289.273 -9802118.544 22851095.361 10 0 60364 49500.00000 0 7807999.426 -7878448.285 22981669.557 10 0 60364 50400.00000 0 9999950.369 -6115623.636 22666489.683 10 0 60364 51300.00000 0 12259268.159 -4552883.056 21911641.526 10 0 60364 52200.00000 0 14523602.442 -3218604.768 20731725.671 10 0 60364 53100.00000 0 16727557.771 -2129319.720 19149579.522 10 0 60364 54000.00000 0 18805268.906 -1289231.423 17195841.134 10 0 60364 54900.00000 0 20693013.777 -690261.950 14908362.569 10 0 60364 55800.00000 0 22331755.895 -312621.570 12331483.251 10 0 60364 56700.00000 0 23669510.516 -125877.609 9515176.575 10 0 60364 57600.00000 0 24663435.797 -90477.246 6514085.531 10 0 60364 58500.00000 0 25281561.271 -159659.755 3386465.565 10 0 60364 59400.00000 0 25504080.852 -281677.156 193054.877 10 0 60364 60300.00000 0 25324155.607 -402229.033 -3004105.917 10 0 60364 61200.00000 0 24748192.011 -467007.946 -6142881.562 10 0 60364 62100.00000 0 23795583.425 -424247.015 -9162253.482 10 0 60364 63000.00000 0 22497925.172 -227160.935 -12003510.511 10 0 60364 63900.00000 0 20897735.824 163823.940 -14611395.267 10 0 60364 64800.00000 0 19046738.184 779145.879 -16935183.298 10 0 60364 65700.00000 0 17003771.997 1638573.041 -18929673.576 10 0 60364 66600.00000 0 14832425.913 2750123.724 -20556070.721 10 0 60364 67500.00000 0 12598487.955 4109488.447 -21782741.687 10 0 60364 68400.00000 0 10367321.182 5699979.439 -22585832.176 10 0 60364 69300.00000 0 8201274.226 7493010.858 -22949730.902 10 0 60364 70200.00000 0 6157234.706 9449090.668 -22867372.850 10 0 60364 71100.00000 0 4284427.286 11519283.634 -22340375.818 10 0 60364 72000.00000 0 2622547.784 13647084.946 -21379007.700 10 0 60364 72900.00000 0 1200310.439 15770626.812 -20001985.255 10 0 60364 73800.00000 0 34468.055 17825126.222 -18236108.256 10 0 60364 74700.00000 0 -870655.166 19745471.866 -16115736.123 10 0 60364 75600.00000 0 -1523099.887 21468842.224 -13682117.175 10 0 60364 76500.00000 0 -1942681.107 22937245.394 -10982583.525 10 0 60364 77400.00000 0 -2159897.147 24099874.336 -8069627.387 10 0 60364 78300.00000 0 -2214385.564 24915178.926 -4999876.934 10 0 60364 79200.00000 0 -2152992.492 25352568.003 -1832991.910 10 0 60364 80100.00000 0 -2027538.214 25393670.191 1369499.079 10 0 60364 81000.00000 0 -1892374.527 25033100.827 4545396.569 10 0 60364 81900.00000 0 -1801838.088 24278703.203 7633039.815 10 0 60364 82800.00000 0 -1807708.233 23151254.382 10572504.042 10 0 60364 83700.00000 0 -1956777.281 21683648.428 13306761.942 10 0 60364 84600.00000 0 -2288636.411 19919591.681 15782786.880 10 0 60364 85500.00000 0 -2833770.859 17911865.001 17952576.619 10 0 60365 0.00000 0 -3612044.960 15720226.008 19774078.055 10 0 60365 900.00000 0 -4631641.518 13409037.613 21211996.604 10 0 60365 1800.00000 0 -5888499.469 11044724.389 22238472.964 10 0 60365 2700.00000 0 -7366275.343 8693158.239 22833618.223 10 0 60365 3600.00000 0 -9036829.980 6417084.210 22985895.127 10 0 60365 4500.00000 0 -10861221.485 4273691.396 22692339.735 10 0 60365 5400.00000 0 -12791164.046 2312428.949 21958619.286 10 0 60365 6300.00000 0 -14770892.989 573156.864 20798925.167 10 0 60365 7200.00000 0 -16739359.527 -915292.687 19235702.742 10 0 60365 8100.00000 0 -18632664.843 -2136084.585 17299222.749 10 0 60365 9000.00000 0 -20386632.991 -3084841.122 15027001.751 10 0 60365 9900.00000 0 -21939415.931 -3769575.007 12463082.048 10 0 60365 10800.00000 0 -23234022.297 -4210098.516 9657184.129 10 0 60365 11700.00000 0 -24220664.276 -4436934.132 6663747.327 10 0 60365 12600.00000 0 -24858824.065 -4489772.955 3540876.768 10 0 60365 13500.00000 0 -25118952.834 -4415546.281 349216.724 10 0 60365 14400.00000 0 -24983730.226 -4266192.245 -2849227.778 10 0 60365 15300.00000 0 -24448830.665 -4096212.452 -5992297.948 10 0 60365 16200.00000 0 -23523163.474 -3960122.617 -9018892.929 10 0 60365 17100.00000 0 -22228575.897 -3909905.901 -11870162.103 10 0 60365 18000.00000 0 -20599030.822 -3992577.619 -14490654.148 10 0 60365 18900.00000 0 -18679293.175 -4247965.359 -16829399.959 10 0 60365 19800.00000 0 -16523179.690 -4706799.437 -18840907.896 10 0 60365 20700.00000 0 -14191445.134 -5389195.453 -20486051.686 10 0 60365 21600.00000 0 -11749393.285 -6303594.073 -21732833.554 10 0 60365 22500.00000 0 -9264312.401 -7446203.804 -22557007.756 10 0 60365 23400.00000 0 -6802842.127 -8800971.240 -22942552.501 10 0 60365 24300.00000 0 -4428381.493 -10340080.994 -22881981.237 10 0 60365 25200.00000 0 -2198645.687 -12024965.215 -22376487.448 10 0 60365 26100.00000 0 -163472.985 -13807781.078 -21435920.258 10 0 60365 27000.00000 0 1637027.470 -15633294.951 -20078591.405 10 0 60365 27900.00000 0 3173910.677 -17441094.748 -18330917.329 10 0 60365 28800.00000 0 4430354.776 -19168038.102 -16226903.311 10 0 60365 29700.00000 0 5402105.231 -20750833.916 -13807479.655 10 0 60365 30600.00000 0 6097387.074 -22128649.137 -11119702.796 10 0 60365 31500.00000 0 6536290.403 -23245631.351 -8215836.972 10 0 60365 32400.00000 0 6749656.578 -24053241.241 -5152334.498 10 0 60365 33300.00000 0 6777513.545 -24512296.872 -1988734.757 10 0 60365 34200.00000 0 6667127.743 -24594643.866 1213496.246 10 0 60365 35100.00000 0 6470756.130 -24284381.306 4392162.771 10 0 60365 36000.00000 0 6243194.452 -23578591.940 7485548.958 10 0 60365 36900.00000 0 6039226.255 -22487546.181 10433617.281 10 0 60365 37800.00000 0 5911081.156 -21034371.544 13179172.347 10 0 60365 38700.00000 0 5906010.189 -19254201.540 15668967.473 10 0 60365 39600.00000 0 6064080.876 -17192839.810 17854732.753 10 0 60365 40500.00000 0 6416285.153 -14904995.324 19694105.161 10 0 60365 41400.00000 0 6983039.977 -12452162.124 21151443.339 10 0 60365 42300.00000 0 7773143.809 -9900231.597 22198512.011 10 0 60365 43200.00000 0 8783233.102 -7316936.054 22815023.620 10 0 60365 44100.00000 0 9997762.026 -4769229.005 22989027.403 10 0 60365 45000.00000 0 11389506.967 -2320709.991 22717138.948 10 0 60365 45900.00000 0 12920575.518 -29199.744 22004606.090 10 0 60365 46800.00000 0 14543878.851 2055434.867 20865209.905 10 0 60365 47700.00000 0 16205007.006 3893116.890 19321002.402 10 0 60365 48600.00000 0 17844429.861 5454981.158 17401885.492 10 0 60365 49500.00000 0 19399932.781 6724323.767 15145038.562 10 0 60365 50400.00000 0 20809185.874 7697040.453 12594204.946 10 0 60365 51300.00000 0 22012339.827 8381536.289 9798850.220 10 0 60365 52200.00000 0 22954539.778 8798111.139 6813207.893 10 0 60365 53100.00000 0 23588251.639 8977847.212 3695230.443 10 0 60365 54000.00000 0 23875302.748 8961046.028 505465.768 10 0 60365 54900.00000 0 23788550.415 8795281.196 -2694119.225 10 0 60365 55800.00000 0 23313107.270 8533149.741 -5841344.746 10 0 60365 56700.00000 0 22447070.903 8229817.630 -8875030.136 10 0 60365 57600.00000 0 21201726.038 7940464.021 -11736187.647 10 0 60365 58500.00000 0 19601209.771 7717733.125 -14369174.142 10 0 60365 59400.00000 0 17681653.057 7609302.311 -16722777.734 10 0 60365 60300.00000 0 15489833.686 7655670.199 -18751217.804 10 0 60365 61200.00000 0 13081396.661 7888259.071 -20415038.560 10 0 60365 62100.00000 0 10518715.945 8327912.616 -21681878.647 10 0 60365 63000.00000 0 7868486.581 8983853.207 -22527101.815 10 0 60365 63900.00000 0 5199147.411 9853143.426 -22934276.476 10 0 60365 64800.00000 0 2578241.490 10920675.256 -22895495.003 10 0 60365 65700.00000 0 69823.804 12159688.032 -22411526.737 10 0 60365 66600.00000 0 -2267976.210 13532793.985 -21491801.860 10 0 60365 67500.00000 0 -4385136.508 14993468.764 -20154226.542 10 0 60365 68400.00000 0 -6241578.512 16487944.750 -18424832.948 10 0 60365 69300.00000 0 -7808581.862 17957427.881 -16337270.892 10 0 60365 70200.00000 0 -9069719.952 19340545.044 -13932150.973 10 0 60365 71100.00000 0 -10021278.488 20575919.188 -11256251.934 10 0 60365 72000.00000 0 -10672141.018 21604763.860 -8361607.759 10 0 60365 72900.00000 0 -11043147.796 22373387.842 -5304492.418 10 0 60365 73800.00000 0 -11165956.555 22835504.366 -2144322.288 10 0 60365 74700.00000 0 -11081454.686 22954247.467 1057501.975 10 0 60365 75600.00000 0 -10837791.227 22703810.482 4238791.149 10 0 60365 76500.00000 0 -10488112.988 22070637.601 7337777.063 10 0 60365 77400.00000 0 -10088101.471 21054118.305 10294312.197 10 0 60365 78300.00000 0 -9693415.407 19666755.472 13051035.749 10 0 60365 79200.00000 0 -9357147.428 17933800.035 15554483.531 10 0 60365 80100.00000 0 -9127402.521 15892367.436 17756120.340 10 0 60365 81000.00000 0 -9045100.451 13590072.643 19613275.251 10 0 60365 81900.00000 0 -9142094.666 11083240.347 21089962.371 10 0 60365 82800.00000 0 -9439686.762 8434764.510 22157571.889 10 0 60365 83700.00000 0 -9947598.874 5711705.565 22795418.882 10 0 60365 84600.00000 0 -10663447.212 2982724.268 22991139.970 10 0 60365 85500.00000 0 -11572739.066 315457.678 22740930.731 99